Satellite-Ground Cal/Val Region Overpasses Predictions

Prediction of Satellite NPP Overpassing Cal/Val Region: PacNW

Region Location: (Latitude: 10.00, Longitude: 139.50) to (Latitude: 22.70, Longitude: 165.60).

Table of predicted overpasses for the next 14.0 days since TLE Epoch: 8/26/2023
Interval Starting Time Starting Location Ending Time Ending Location
1 08/26/2023 03:37:45 ( 10.06, 145.56) 08/26/2023 03:41:20 ( 22.68, 142.56)
2 08/26/2023 14:31:11 ( 11.90, 165.59) 08/26/2023 14:31:43 ( 10.02, 165.16)
3 08/26/2023 16:09:36 ( 22.69, 142.79) 08/26/2023 16:13:12 ( 10.01, 139.78)
4 08/27/2023 03:18:42 ( 10.06, 150.32) 08/27/2023 03:22:17 ( 22.68, 147.32)
5 08/27/2023 15:50:34 ( 22.69, 147.55) 08/27/2023 15:54:10 ( 10.01, 144.54)
6 08/28/2023 02:59:40 ( 10.06, 155.08) 08/28/2023 03:03:15 ( 22.68, 152.08)
7 08/28/2023 15:31:32 ( 22.69, 152.31) 08/28/2023 15:35:08 ( 10.01, 149.30)
8 08/29/2023 02:40:37 ( 10.06, 159.83) 08/29/2023 02:44:12 ( 22.68, 156.84)
9 08/29/2023 15:12:29 ( 22.69, 157.07) 08/29/2023 15:16:05 ( 10.01, 154.05)
10 08/30/2023 02:21:34 ( 10.00, 164.60) 08/30/2023 02:25:10 ( 22.68, 161.59)
11 08/30/2023 14:53:27 ( 22.69, 161.82) 08/30/2023 14:57:03 ( 10.01, 158.81)
12 08/31/2023 03:44:01 ( 10.01, 143.98) 08/31/2023 03:47:37 ( 22.70, 140.97)
13 08/31/2023 14:35:33 ( 18.64, 165.59) 08/31/2023 14:38:00 ( 10.01, 163.57)
14 08/31/2023 16:15:54 ( 22.68, 141.20) 08/31/2023 16:17:53 ( 15.69, 139.51)
15 09/01/2023 03:24:59 ( 10.02, 148.74) 09/01/2023 03:28:34 ( 22.64, 145.74)
16 09/01/2023 15:56:52 ( 22.67, 145.96) 09/01/2023 16:00:27 ( 10.05, 142.96)
17 09/02/2023 03:05:56 ( 10.02, 153.50) 09/02/2023 03:09:31 ( 22.65, 150.50)
18 09/02/2023 15:37:49 ( 22.67, 150.72) 09/02/2023 15:41:24 ( 10.04, 147.72)
19 09/03/2023 02:46:54 ( 10.03, 158.25) 09/03/2023 02:50:29 ( 22.66, 155.26)
20 09/03/2023 15:18:47 ( 22.66, 155.47) 09/03/2023 15:22:22 ( 10.04, 152.48)
21 09/04/2023 02:27:52 ( 10.04, 163.01) 09/04/2023 02:31:27 ( 22.67, 160.01)
22 09/04/2023 14:59:44 ( 22.65, 160.23) 09/04/2023 15:03:19 ( 10.03, 157.23)
23 09/05/2023 02:11:27 ( 19.33, 165.59) 09/05/2023 02:12:24 ( 22.68, 164.77)
24 09/05/2023 03:50:18 ( 10.00, 142.40) 09/05/2023 03:53:46 ( 22.22, 139.51)
25 09/05/2023 14:40:41 ( 22.70, 165.00) 09/05/2023 14:44:17 ( 10.02, 161.99)
26 09/05/2023 16:22:11 ( 22.69, 139.62) 09/05/2023 16:22:19 ( 22.22, 139.51)
27 09/06/2023 03:31:16 ( 10.01, 147.16) 09/06/2023 03:34:52 ( 22.70, 144.15)
28 09/06/2023 16:03:08 ( 22.68, 144.38) 09/06/2023 16:06:44 ( 10.00, 141.37)
29 09/07/2023 03:12:13 ( 10.02, 151.92) 09/07/2023 03:15:48 ( 22.65, 148.92)
30 09/07/2023 15:44:06 ( 22.67, 149.13) 09/07/2023 15:47:41 ( 10.05, 146.14)
31 09/08/2023 02:53:11 ( 10.04, 156.67) 09/08/2023 02:56:46 ( 22.66, 153.67)
